Regional Weather Roundup
Issued by NWS

Home | Current Version | Previous Version | Text Only | Print | Product List | Glossary On
Versions: 1 2 3 4 5 6 7 8 9 10 11 12 13 14 15 16 17 18 19 20 21 22 23 24 25 26 27 28 29 30 31 32 33 34 35 36 37 38 39 40 41 42 43 44 45 46 47 48 49 50
000
ASUS43 KDTX 131210
RWRMI
MICHIGAN HOURLY REGIONAL WEATHER ROUNDUP
NATIONAL WEATHER SERVICE DETROIT/PONTIAC MI
700 AM EST WED DEC 13 2017

NOTE: "FAIR" INDICATES FEW OR NO CLOUDS BELOW 12,000 FEET WITH NO
SIGNIFICANT WEATHER AND/OR OBSTRUCTION TO VISIBILITY.

MIZ047>049-052>055-059>063-066>070-074>076-081>083-131300-
SOUTHEAST LOWER MICHIGAN

CITY           SKY/WX    TMP DP  RH WIND       PRES   REMARKS
ADRIAN         CLOUDY    17  12  80 SW8       29.83F WCI   7
6HR MIN TEMP:  17; 6HR MAX TEMP:  17;

ALMA           CLOUDY    17  13  84 S6        29.77F WCI   9
6HR MIN TEMP:  14; 6HR MAX TEMP:  17;

ANN ARBOR      CLOUDY    16  10  77 S7        29.81F WCI   6
BAD AXE        CLOUDY    13   6  75 NW3       29.79F
6HR MIN TEMP:  10; 6HR MAX TEMP:  13;

CARO           CLOUDY    13   8  81 CALM      29.77F
DETROIT CITY   CLOUDY    15   8  73 SW5       29.83F WCI   8
6HR MIN TEMP:  13; 6HR MAX TEMP:  16;

DETROIT        CLOUDY    18   9  68 SW7       29.84F WCI   9
6HR MIN TEMP:  14; 6HR MAX TEMP:  18;

FLINT          CLOUDY    15   9  76 S6        29.79F WCI   6
6HR MIN TEMP:  14; 6HR MAX TEMP:  15; 6HR PCP: TRACE;

GROSSE ILE     CLOUDY    18  11  75 W6        29.84S WCI   9
6HR MIN TEMP:  15; 6HR MAX TEMP:  18;

HILLSDALE      CLOUDY    16  10  79 S6        29.77S WCI   7
HOWELL         FLURRIES  16  11  81 S6        29.78S WCI   8
6HR MIN TEMP:  14; 6HR MAX TEMP:  16;


CITY           SKY/WX    TMP DP  RH WIND       PRES   REMARKS
JACKSON        CLOUDY    17  11  77 SE7       29.78F WCI   8
6HR MIN TEMP:  16; 6HR MAX TEMP:  17; 6HR PCP: TRACE;

LAMBERTVILLE   CLOUDY    18  12  77 SW6       29.85S WCI  10
6HR MIN TEMP:  18; 6HR MAX TEMP:  18;

LANSING        CLOUDY    17  12  80 S8        29.78F WCI   7
6HR MIN TEMP:  16; 6HR MAX TEMP:  17; 6HR PCP: TRACE;

LAPEER         CLOUDY    15   9  77 SW6       29.79S WCI   6
6HR MIN TEMP:  13; 6HR MAX TEMP:  15;

MASON          FLURRIES  17  10  75 S7        29.77F WCI   8
6HR MIN TEMP:  17; 6HR MAX TEMP:  18;

MONROE         CLOUDY    18  10  71 SW3       29.84S
6HR MIN TEMP:  12; 6HR MAX TEMP:  18;

MT. CLEMENS    CLOUDY    15  10  79 SW7       29.80F WCI   5
6HR MIN TEMP:  10; 6HR MAX TEMP:  15;

PONTIAC        CLOUDY    14   9  80 S3        29.78F
6HR MIN TEMP:  13; 6HR MAX TEMP:  15; 6HR PCP: TRACE;

PORT HOPE        N/A     16   8  71 NW10      29.77F WCI   4
6HR MIN TEMP:  14; 6HR MAX TEMP:  16;

PORT HURON     CLOUDY     9   5  85 CALM      29.82S
TRI CITIES     CLOUDY    15  12  88 S6        29.79F WCI   6
6HR MIN TEMP:  15; 6HR MAX TEMP:  15;

MIDLAND        CLOUDY    16  11  81 CALM      29.77F
6HR MIN TEMP:  15; 6HR MAX TEMP:  16;

TROY           CLOUDY    16   9  71 SW3       29.83F
SAGINAW HB     CLOUDY    16  12  86 S3        29.79F
$$
MIZ043>046-050>051-056>058-064>065-071>073-077>080-131300-
SOUTHWEST LOWER MICHIGAN

CITY           SKY/WX    TMP DP  RH WIND       PRES   REMARKS
BATTLE CREEK   CLOUDY    17  11  77 S9        29.76F WCI   6
6HR MIN TEMP:  14; 6HR MAX TEMP:  17; 6HR PCP: TRACE;

BENTON HARBOR  CLOUDY    21   9  59 S10       29.76S WCI  10
6HR MIN TEMP:  20; 6HR MAX TEMP:  24; 6HR PCP: TRACE;

BIG RAPIDS     LGT SNOW  16  12  84 S6        29.70F WCI   7
6HR MIN TEMP:  15; 6HR MAX TEMP:  16;

COLDWATER      CLOUDY    18  10  73 S6        29.77F WCI   9
6HR MIN TEMP:  13; 6HR MAX TEMP:  18;

FREMONT        CLOUDY    17  15  90 SE7       29.71F WCI   8
6HR MIN TEMP:  16; 6HR MAX TEMP:  17;

HOLLAND        CLOUDY    19  14  81 S9        29.73F WCI   8
6HR MIN TEMP:  16; 6HR MAX TEMP:  19; 6HR PCP: TRACE;

GRAND RAPIDS   FLURRIES  18  16  92 S9        29.74F WCI   7
6HR MIN TEMP:  17; 6HR MAX TEMP:  18; 6HR PCP: TRACE;

IONIA          FLURRIES  18  13  84 SE9       29.74F WCI   6
6HR MIN TEMP:  16; 6HR MAX TEMP:  18;

KALAMAZOO      CLOUDY    18  11  74 S9        29.76F WCI   7
6HR MIN TEMP:  15; 6HR MAX TEMP:  18;

LUDINGTON      FLURRIES  19  14  81 SE8       29.69F WCI   8
6HR MIN TEMP:  18; 6HR MAX TEMP:  21;

MARSHALL       CLOUDY    16  10  76 S6        29.76F WCI   7
6HR MIN TEMP:  16; 6HR MAX TEMP:  16;

MOUNT PLEASANT CLOUDY    17  11  77 S5        29.75F WCI  10
6HR MIN TEMP:  15; 6HR MAX TEMP:  17;

MUSKEGON       FLURRIES  19  14  81 SE12      29.72F WCI   7
6HR MIN TEMP:  17; 6HR MAX TEMP:  19; 6HR PCP: TRACE;

SOUTH HAVEN    CLOUDY    22  12  64 S9        29.74F WCI  12
$$
MIZ016>042-131300-
NORTHERN LOWER MICHIGAN

CITY           SKY/WX    TMP DP  RH WIND       PRES   REMARKS
ALPENA         CLOUDY     6   4  91 SW3       29.77F
6HR MIN TEMP:  -1; 6HR MAX TEMP:  10;

BEAVER ISLAND  LGT SNOW  17  14  89 E8        29.71S WCI   7
6HR MIN TEMP:  15; 6HR MAX TEMP:  17;

BELLAIRE       CLOUDY    13  10  84 CALM      29.73S
6HR MIN TEMP:  13; 6HR MAX TEMP:  14;

CADILLAC       FLURRIES  14  10  84 SE5       29.66S WCI   6
CHARLEVOIX     FLURRIES  14   8  78 SE12      29.74F WCI   0
6HR MIN TEMP:  13; 6HR MAX TEMP:  19;

FRANKFORT      LGT SNOW  18  15  86 SE6       29.70S WCI  10
GAYLORD        CLOUDY     8   3  80 VRB3      29.68F
6HR MIN TEMP:   8; 6HR MAX TEMP:   9; 6HR PCP: TRACE;

GRAYLING       CLOUDY    10   4  77 E7        29.70F WCI  -1
6HR MIN TEMP:  10; 6HR MAX TEMP:  11;

HARBOR SPRINGS FLURRIES  10   5  80 E7        29.73F WCI  -1
HOUGHTON LAKE  CLOUDY    11   7  84 E6        29.70F WCI   1
6HR MIN TEMP:  11; 6HR MAX TEMP:  13;

MANISTEE       LGT SNOW  18  14  86 SE6       29.69F FOG     WCI   9
OSCODA         CLOUDY     7   2  78 CALM      29.78F
6HR MIN TEMP:  -3; 6HR MAX TEMP:   7;

PELLSTON       LGT SNOW  10   7  87 SE3       29.74F FOG
6HR MIN TEMP:   9; 6HR MAX TEMP:  10; 6HR PCP: TRACE;

ROGERS CITY    LGT SNOW  12   7  79 N6        29.77F WCI   3
TRAVERSE CITY  CLOUDY    16  11  80 CALM      29.70F
6HR MIN TEMP:  16; 6HR MAX TEMP:  17;

$$
MIZ007>008-015-131300-
EASTERN UPPER MICHIGAN

CITY           SKY/WX    TMP DP  RH WIND       PRES   REMARKS
KINROSS        CLOUDY    -8 -12  83 E9        29.76F WCI -25
6HR MIN TEMP: -10; 6HR MAX TEMP:  -3;

MACKINAC ISLAN FLURRIES   9   4  83 NE13      29.74F WCI  -7
6HR MIN TEMP:   6; 6HR MAX TEMP:   9;

NEWBERRY       CLOUDY     4   3  96 E8        29.71F WCI  -9
6HR MIN TEMP:   4; 6HR MAX TEMP:   8;

S. S. MARIE    PTCLDY    -7 -12  79 E7        29.78S WCI -21
6HR MIN TEMP: -10; 6HR MAX TEMP:  -4;

MUNISING         N/A     10   6  84 SW7       29.69S WCI  -1
6HR MIN TEMP:  10; 6HR MAX TEMP:  13;

$$
MIZ004>006-011>014-085-131300-
CENTRAL UPPER MICHIGAN

CITY           SKY/WX    TMP DP  RH WIND       PRES   REMARKS
MANISTIQUE     CLOUDY     9   2  74 CALM      29.70S
6HR MIN TEMP:   5; 6HR MAX TEMP:  10;

ESCANABA       LGT SNOW  13  11  92 NE6       29.67F VSB 3/4 WCI   4
6HR MIN TEMP:   6; 6HR MAX TEMP:  13; 6HR PCP: TRACE;

MENOMINEE      LGT SNOW  18  14  84 S6        29.65F FOG     WCI  10
6HR MIN TEMP:  11; 6HR MAX TEMP:  18; 6HR PCP: TRACE;

SAWYER-GWINN   FLURRIES  10   5  79 S6        29.63F WCI   1
$$
MIZ001>003-009>011-084-131300-
WESTERN UPPER MICHIGAN

CITY           SKY/WX    TMP DP  RH WIND       PRES   REMARKS
IRON MOUNTAIN  LGT SNOW  11   6  81 E6        29.59F VSB 3/4 WCI   1
6HR MIN TEMP:  10; 6HR MAX TEMP:  11; 6HR PCP: TRACE;

HOUGHTON       LGT SNOW  14   8  77 SE12      29.59S WCI   0
6HR MIN TEMP:  10; 6HR MAX TEMP:  15; 6HR PCP: TRACE;

COPPER HARBOR    N/A     18   9  68 S5        29.65S WCI  11
6HR MIN TEMP:  10; 6HR MAX TEMP:  18;

IRONWOOD       LGT SNOW  13  10  88 E8        29.47F FOG     WCI   2
6HR MIN TEMP:  11; 6HR MAX TEMP:  14;

$$

ABBREVIATIONS USED IN REMARKS
   TC - TEMPERATURE IN CELSIUS
  WCI - WIND CHILL INDEX
   HX - HEAT INDEX
  VSB - VISIBILITY




USA.gov is the U.S. government's official web portal to all federal, state and local government web resources and services.